Sauk Centre, MN

4:42 AM CST on December 06, 2019 (GMT -0600)
Sauk Centre

Weather History for KD39 - November, 2019

Change the Weather History Date:

Tuesday, November 12, 2019

  Actual Average (KGHW) Record (KGHW)
Temperature  
Mean Temperature 8 °F -  
Max Temperature 16 °F 38 °F 62 °F (2011)
Min Temperature -1 °F 21 °F -4 °F (1966)
Degree Days  
Heating Degree Days 58    
Moisture  
Dew Point 3 °F    
Average Humidity 74    
Maximum Humidity 88    
Minimum Humidity 58    
Precipitation  
Precipitation 0.00 in - - ()
Sea Level Pressure  
Sea Level Pressure 30.25 in    
Wind  
Wind Speed 8 mph ()    
Max Wind Speed 22 mph    
Max Gust Speed 31 mph    
Visibility 10.0 miles    
Events      
Averages and records for this station are not official NWS values.
T = Trace of Precipitation, MM = Missing Value Source: Averaged Metar Reports

Daily Weather History Graph

Daily Weather History Graph

Search for Another Location

Airport or City:

Astronomy

Nov. 12, 2019 Rise Set
Actual Time 7:14 AM CST 4:52 PM CST
Civil Twilight 6:42 AM CST 5:24 PM CST
Nautical Twilight 6:07 AM CST 6:00 PM CST
Astronomical Twilight 5:32 AM CST 6:34 PM CST
Moon 5:21 PM CST (11/12) 7:04 AM CST (11/12)
Length of Visible Light 10h 41m
Length of Day
9h 37m
Full, 100% of the Moon is Illuminated
Nov 12
Full
Nov 19
Last Quarter
Nov 26
New
Dec 4
First Quarter
Dec 11
Full

Hourly Weather History & Observations

Time (CST) Temp. Windchill Dew Point Humidity Pressure Visibility Wind Dir Wind Speed Gust Speed Precip Events Conditions
12:16 AM 2.3 °F -7.2 °F -1.5 °F 84% 30.57 in 10.0 mi West 4.6 mph - N/A   Clear
12:35 AM 1.6 °F -8.0 °F -2.2 °F 84% 30.56 in 10.0 mi West 4.6 mph - N/A   Clear
12:36 AM 1.6 °F -8.0 °F -2.2 °F 84% 30.56 in 10.0 mi West 4.6 mph - N/A   Clear
12:55 AM 1.2 °F - -2.4 °F 85% 30.55 in 10.0 mi Calm Calm - N/A   Clear
12:56 AM 1.2 °F - -2.4 °F 85% 30.55 in 10.0 mi Calm Calm - N/A   Clear
1:18 AM 1.6 °F -6.0 °F -2.2 °F 84% 30.55 in 10.0 mi West 3.5 mph - N/A   Clear
1:36 AM 1.4 °F - -2.4 °F 84% 30.55 in 10.0 mi Calm Calm - N/A   Clear
1:56 AM 1.2 °F -6.4 °F -2.7 °F 83% 30.55 in 10.0 mi WSW 3.5 mph - N/A   Clear
2:15 AM 1.0 °F - -2.7 °F 84% 30.55 in 10.0 mi Calm Calm - N/A   Clear
2:16 AM 0.9 °F - -2.9 °F 84% 30.55 in 10.0 mi Calm Calm - N/A   Clear
2:35 AM 1.4 °F -6.2 °F -2.4 °F 84% 30.53 in 10.0 mi SW 3.5 mph - N/A   Clear
2:39 AM 1.4 °F -6.2 °F -2.2 °F 85% 30.53 in 10.0 mi SW 3.5 mph - N/A   Clear
2:58 AM 0.9 °F -6.9 °F -2.7 °F 85% 30.53 in 10.0 mi SW 3.5 mph - N/A   Clear
3:15 AM 0.5 °F -9.3 °F -2.9 °F 85% 30.52 in 10.0 mi WSW 4.6 mph - N/A   Clear
3:35 AM 0.1 °F - -3.3 °F 85% 30.51 in 10.0 mi Calm Calm - N/A   Clear
3:36 AM 0.3 °F - -3.1 °F 85% 30.51 in 10.0 mi Calm Calm - N/A   Clear
3:55 AM 0.3 °F -7.5 °F -3.3 °F 85% 30.50 in 10.0 mi SSW 3.5 mph - N/A   Clear
3:56 AM 0.3 °F -7.5 °F -3.3 °F 85% 30.50 in 10.0 mi SW 3.5 mph - N/A   Clear
4:18 AM 0.1 °F - -3.6 °F 84% 30.49 in 10.0 mi Calm Calm - N/A   Clear
4:37 AM 0.3 °F -7.5 °F -3.1 °F 85% 30.49 in 10.0 mi SSW 3.5 mph - N/A   Clear
4:56 AM -0.4 °F - -3.8 °F 85% 30.48 in 10.0 mi Calm Calm - N/A   Clear
5:15 AM -0.8 °F -8.7 °F -4.0 °F 86% 30.48 in 10.0 mi South 3.5 mph - N/A   Clear
5:16 AM -0.8 °F -8.7 °F -3.8 °F 87% 30.48 in 10.0 mi South 3.5 mph - N/A   Clear
5:35 AM -1.1 °F -9.1 °F -4.0 °F 88% 30.47 in 10.0 mi South 3.5 mph - N/A   Clear
5:40 AM -0.9 °F -8.9 °F -4.4 °F 85% 30.47 in 10.0 mi South 3.5 mph - N/A   Clear
5:57 AM -0.9 °F -8.9 °F -4.2 °F 86% 30.46 in 10.0 mi SSE 3.5 mph - N/A   Clear
6:15 AM -1.3 °F -9.3 °F -4.7 °F 85% 30.45 in 10.0 mi SSE 3.5 mph - N/A   Clear
6:35 AM -1.8 °F -13.7 °F -5.1 °F 86% 30.45 in 10.0 mi SE 5.8 mph - N/A   Clear
6:36 AM -1.7 °F -13.5 °F -4.9 °F 86% 30.45 in 10.0 mi SE 5.8 mph - N/A   Clear
6:55 AM -1.5 °F -9.5 °F -4.9 °F 85% 30.44 in 10.0 mi South 3.5 mph - N/A   Clear
6:56 AM -1.5 °F -9.5 °F -4.9 °F 85% 30.44 in 10.0 mi South 3.5 mph - N/A   Clear
7:18 AM -1.1 °F -12.9 °F -4.7 °F 85% 30.43 in 10.0 mi South 5.8 mph - N/A   Clear
7:37 AM 0.5 °F -9.3 °F -3.1 °F 85% 30.43 in 10.0 mi SSE 4.6 mph - N/A   Clear
7:56 AM 1.6 °F -8.0 °F -2.2 °F 84% 30.43 in 10.0 mi SSE 4.6 mph - N/A   Clear
8:15 AM 3.2 °F -12.2 °F -0.9 °F 83% 30.42 in 10.0 mi South 10.4 mph - N/A   Clear
8:35 AM 4.6 °F -11.3 °F 0.3 °F 82% 30.42 in 10.0 mi South 11.5 mph - N/A   Clear
8:57 AM 5.9 °F -11.2 °F 0.5 °F 78% 30.41 in 10.0 mi South 13.8 mph - N/A   Clear
9:16 AM 7.0 °F -9.1 °F 1.4 °F 78% 30.39 in 10.0 mi South 12.7 mph - N/A   Clear
9:35 AM 8.4 °F -8.6 °F 2.3 °F 76% 30.37 in 10.0 mi South 15.0 mph 20.7 mph N/A   Clear
9:36 AM 8.6 °F -7.7 °F 2.3 °F 76% 30.37 in 10.0 mi South 13.8 mph 20.7 mph N/A   Clear
9:55 AM 9.7 °F -7.5 °F 2.7 °F 73% 30.35 in 10.0 mi South 16.1 mph - N/A   Clear
9:56 AM 9.9 °F -6.1 °F 2.8 °F 73% 30.35 in 10.0 mi South 13.8 mph - N/A   Clear
10:18 AM 10.8 °F -5.6 °F 2.5 °F 69% 30.34 in 10.0 mi South 15.0 mph - N/A   Clear
10:36 AM 11.5 °F -4.7 °F 2.8 °F 68% 30.34 in 10.0 mi South 15.0 mph - N/A   Clear
10:56 AM 10.9 °F -4.7 °F 2.3 °F 68% 30.34 in 10.0 mi SSE 13.8 mph 19.6 mph N/A   Clear
11:15 AM 12.9 °F -3.4 °F 3.2 °F 65% 30.33 in 10.0 mi SSE 16.1 mph 19.6 mph N/A   Clear
11:16 AM 12.9 °F -2.8 °F 3.0 °F 65% 30.33 in 10.0 mi South 15.0 mph 19.6 mph N/A   Clear
11:35 AM 14.0 °F -0.8 °F 3.6 °F 63% 30.31 in 10.0 mi SSE 13.8 mph 19.6 mph N/A   Clear
11:57 AM 14.5 °F -1.3 °F 3.4 °F 61% 30.28 in 10.0 mi SSE 16.1 mph - N/A   Clear
12:16 PM 15.4 °F -0.6 °F 4.3 °F 61% 30.27 in 10.0 mi SSE 17.3 mph 24.2 mph N/A   Clear
12:35 PM 14.5 °F -1.3 °F 3.4 °F 61% 30.25 in 10.0 mi SE 16.1 mph 21.9 mph N/A   Clear
12:36 PM 14.5 °F -1.3 °F 3.2 °F 61% 30.25 in 10.0 mi SSE 16.1 mph - N/A   Clear
12:55 PM 14.4 °F -2.5 °F 3.6 °F 62% 30.22 in 10.0 mi SE 18.4 mph 24.2 mph N/A   Clear
1:17 PM 14.7 °F -0.5 °F 3.2 °F 60% 30.21 in 10.0 mi SE 15.0 mph 25.3 mph N/A   Clear
1:36 PM 14.7 °F -1.6 °F 3.0 °F 60% 30.19 in 10.0 mi SE 17.3 mph 26.5 mph N/A   Clear
1:55 PM 15.4 °F -1.6 °F 3.9 °F 60% 30.18 in 10.0 mi SE 19.6 mph 24.2 mph N/A   Clear
1:56 PM 15.4 °F -1.6 °F 3.7 °F 60% 30.18 in 10.0 mi SE 19.6 mph - N/A   Clear
2:15 PM 15.8 °F -0.6 °F 3.4 °F 58% 30.16 in 10.0 mi SSE 18.4 mph 26.5 mph N/A   Clear
2:16 PM 15.6 °F -0.4 °F 3.4 °F 59% 30.16 in 10.0 mi SSE 17.3 mph 26.5 mph N/A   Clear
2:38 PM 15.8 °F -1.1 °F 3.6 °F 59% 30.14 in 10.0 mi SE 19.6 mph 27.6 mph N/A   Clear
2:56 PM 15.3 °F -1.3 °F 3.4 °F 59% 30.12 in 10.0 mi SE 18.4 mph 26.5 mph N/A   Clear
3:16 PM 15.3 °F -2.6 °F 3.7 °F 60% 30.10 in 10.0 mi SE 21.9 mph 27.6 mph N/A   Clear
3:35 PM 15.6 °F -1.8 °F 4.1 °F 60% 30.08 in 10.0 mi SE 20.7 mph 31.1 mph N/A   Clear
3:36 PM 15.6 °F -2.2 °F 4.1 °F 60% 30.08 in 10.0 mi SE 21.9 mph 31.1 mph N/A   Clear
3:55 PM 15.6 °F -1.8 °F 4.5 °F 61% 30.08 in 10.0 mi SE 20.7 mph 29.9 mph N/A   Clear
4:00 PM 15.8 °F -1.1 °F 4.6 °F 61% 30.08 in 10.0 mi SSE 19.6 mph 25.3 mph N/A   Clear
4:17 PM 15.6 °F -2.2 °F 4.8 °F 62% 30.08 in 10.0 mi SSE 21.9 mph 27.6 mph N/A   Clear
4:55 PM 15.6 °F -1.8 °F 5.0 °F 63% 30.06 in 10.0 mi SSE 20.7 mph 28.8 mph N/A   Clear
4:56 PM 15.6 °F -0.9 °F 5.2 °F 63% 30.06 in 10.0 mi SSE 18.4 mph 28.8 mph N/A   Clear
5:15 PM 15.8 °F -0.2 °F 5.9 °F 65% 30.05 in 10.0 mi SSE 17.3 mph 27.6 mph N/A   Scattered Clouds
5:16 PM 15.8 °F 0.9 °F 5.9 °F 65% 30.05 in 10.0 mi SSE 15.0 mph 27.6 mph N/A   Scattered Clouds
5:38 PM 15.8 °F -1.1 °F 5.9 °F 65% 30.05 in 10.0 mi SSE 19.6 mph 25.3 mph N/A   Clear
5:56 PM 15.8 °F -1.9 °F 6.4 °F 67% 30.05 in 10.0 mi SSE 21.9 mph 27.6 mph N/A   Scattered Clouds
6:15 PM 16.2 °F -0.6 °F 6.8 °F 67% 30.04 in 10.0 mi SSE 19.6 mph 25.3 mph N/A   Scattered Clouds
6:16 PM 16.2 °F -0.2 °F 6.8 °F 67% 30.04 in 10.0 mi SSE 18.4 mph 25.3 mph N/A   Scattered Clouds
6:35 PM 16.3 °F 0.1 °F 7.2 °F 67% 30.04 in 10.0 mi SSE 18.4 mph 24.2 mph N/A   Clear
6:36 PM 16.3 °F 1.0 °F 7.0 °F 67% 30.04 in 10.0 mi SSE 16.1 mph 24.2 mph N/A   Clear
6:55 PM 16.2 °F 1.3 °F 7.2 °F 68% 30.03 in 10.0 mi SSE 15.0 mph 23.0 mph N/A   Scattered Clouds
7:17 PM 16.2 °F -0.2 °F 7.5 °F 69% 30.02 in 10.0 mi SSE 18.4 mph 25.3 mph N/A   Scattered Clouds
7:35 PM 16.2 °F 0.3 °F 7.7 °F 69% 30.00 in 10.0 mi SSE 17.3 mph 20.7 mph N/A   Scattered Clouds
7:55 PM 16.3 °F 0.1 °F 8.2 °F 70% 29.99 in 10.0 mi SSE 18.4 mph - N/A   Mostly Cloudy
8:15 PM 16.5 °F 0.8 °F 8.6 °F 71% 29.98 in 10.0 mi SSE 17.3 mph 20.7 mph N/A   Overcast
8:16 PM 16.5 °F 0.8 °F 8.6 °F 71% 29.98 in 10.0 mi SSE 17.3 mph 20.7 mph N/A   Mostly Cloudy
8:38 PM 16.7 °F 0.1 °F 8.6 °F 70% 29.97 in 10.0 mi SSE 19.6 mph 24.2 mph N/A   Mostly Cloudy
8:56 PM 16.5 °F 1.3 °F 8.8 °F 72% 29.98 in 10.0 mi SSE 16.1 mph 24.2 mph N/A   Mostly Cloudy
9:15 PM 16.5 °F 0.3 °F 9.0 °F 72% 29.96 in 10.0 mi SSE 18.4 mph 24.2 mph N/A   Mostly Cloudy
9:16 PM 16.5 °F 1.3 °F 9.0 °F 72% 29.96 in 10.0 mi SSE 16.1 mph 24.2 mph N/A   Mostly Cloudy
9:35 PM 16.5 °F 1.3 °F 9.1 °F 73% 29.95 in 10.0 mi SSE 16.1 mph - N/A   Overcast
9:36 PM 16.5 °F 1.3 °F 9.1 °F 73% 29.95 in 10.0 mi SSE 16.1 mph - N/A   Overcast
9:55 PM 16.3 °F 1.0 °F 9.1 °F 73% 29.95 in 10.0 mi SSE 16.1 mph 23.0 mph N/A   Scattered Clouds
9:59 PM 16.3 °F 2.1 °F 9.3 °F 74% 29.94 in 7.0 mi SSE 13.8 mph 23.0 mph N/A   Scattered Clouds
10:16 PM 16.0 °F 1.1 °F 9.1 °F 74% 29.93 in 10.0 mi SSE 15.0 mph 23.0 mph N/A   Scattered Clouds
10:35 PM 15.8 °F 2.1 °F 9.3 °F 76% 29.93 in 10.0 mi SSE 12.7 mph - N/A   Clear
10:36 PM 15.8 °F 2.1 °F 9.3 °F 76% 29.93 in 10.0 mi SSE 12.7 mph - N/A   Clear
10:55 PM 15.8 °F 1.4 °F 9.3 °F 76% 29.91 in 10.0 mi SSE 13.8 mph 20.7 mph N/A   Clear
10:56 PM 15.8 °F 0.9 °F 9.5 °F 76% 29.91 in 10.0 mi SSE 15.0 mph 20.7 mph N/A   Clear
11:15 PM 15.8 °F 0.9 °F 9.5 °F 76% 29.91 in 10.0 mi SSE 15.0 mph - N/A   Clear
11:19 PM 15.8 °F 0.3 °F 9.5 °F 76% 29.91 in 10.0 mi SSE 16.1 mph - N/A   Clear
11:37 PM 16.2 °F 1.3 °F 9.5 °F 75% 29.89 in 10.0 mi SSE 15.0 mph - N/A   Clear
11:56 PM 16.2 °F 1.3 °F 9.5 °F 75% 29.88 in 10.0 mi SSE 15.0 mph 19.6 mph N/A   Clear